When you browse on this site, cookies collect data to enhance your experience and personalize the content and advertising you see.
Visit our Privacy Policy to learn more. By continuing to use the site, you agree to this use of cookies and data.
  • In Österreich
  • Länderverzeichnis
  • Für 7 Tage
  • Wassertemperatur
  • Satellitenkarten
  • Wetterkarte
  • News
  • Widgets
  • user-avatar
    Anmelden

    Stündliche Wetter Rohovychi

    Heute, 20 Mai, Montag

    Zeit Temperatur Niederschläge Wind Luftdruck Luftfeuchtigkeit
    00:00 +17°C° 0 mm 5 m/S 734 mmHg 85%
    01:00 +17°C° 0 mm 5 m/S 734 mmHg 86%
    02:00 +16°C° 0 mm 5 m/S 734 mmHg 88%
    03:00 +16°C° 0.1 mm 5 m/S 734 mmHg 89%
    04:00 +16°C° 0.1 mm 5 m/S 734 mmHg 89%
    05:00 +16°C° 0.1 mm 6 m/S 734 mmHg 90%
    06:00 +17°C° 0.1 mm 6 m/S 734 mmHg 87%
    07:00 +19°C° 0.1 mm 6 m/S 734 mmHg 84%
    08:00 +20°C° 0 mm 6 m/S 734 mmHg 82%
    09:00 +21°C° 1.1 mm 7 m/S 734 mmHg 79%
    10:00 +22°C° 1.1 mm 7 m/S 734 mmHg 77%
    11:00 +23°C° 1.1 mm 7 m/S 734 mmHg 75%
    12:00 +23°C° 1.4 mm 7 m/S 734 mmHg 76%
    13:00 +23°C° 1.4 mm 7 m/S 734 mmHg 77%
    14:00 +23°C° 0 mm 6 m/S 734 mmHg 80%
    15:00 +22°C° 0.9 mm 6 m/S 734 mmHg 81%
    16:00 +22°C° 0.9 mm 6 m/S 734 mmHg 83%
    17:00 +21°C° 0.9 mm 5 m/S 734 mmHg 84%
    18:00 +21°C° 1.8 mm 5 m/S 733 mmHg 84%
    19:00 +20°C° 1.8 mm 5 m/S 733 mmHg 84%
    20:00 +19°C° 1.8 mm 5 m/S 733 mmHg 85%
    21:00 +19°C° 1.8 mm 5 m/S 733 mmHg 87%
    22:00 +17°C° 1.8 mm 5 m/S 733 mmHg 89%
    23:00 +18°C° 1.8 mm 4 m/S 733 mmHg 91%

    Morgen, 21 Mai, Dienstag

    Zeit Temperatur Niederschläge Wind Luftdruck Luftfeuchtigkeit
    00:00 +17°C° 0.6 mm 5 m/S 733 mmHg 91%
    01:00 +16°C° 0.6 mm 5 m/S 733 mmHg 91%
    02:00 +16°C° 0.6 mm 5 m/S 733 mmHg 91%
    03:00 +16°C° 0 mm 5 m/S 732 mmHg 92%
    04:00 +15°C° 0 mm 5 m/S 732 mmHg 93%
    05:00 +15°C° 0 mm 5 m/S 732 mmHg 94%
    06:00 +16°C° 0 mm 6 m/S 732 mmHg 90%
    07:00 +16°C° 0 mm 7 m/S 732 mmHg 87%
    08:00 +17°C° 0 mm 8 m/S 732 mmHg 84%
    09:00 +17°C° 0.1 mm 7 m/S 732 mmHg 85%
    10:00 +17°C° 0.1 mm 6 m/S 732 mmHg 86%
    11:00 +16°C° 0.1 mm 6 m/S 732 mmHg 86%
    12:00 +17°C° 0.1 mm 6 m/S 732 mmHg 83%
    13:00 +19°C° 0.1 mm 6 m/S 732 mmHg 79%
    14:00 +20°C° 0.1 mm 5 m/S 732 mmHg 76%
    15:00 +20°C° 0.9 mm 5 m/S 732 mmHg 77%
    16:00 +20°C° 0.9 mm 4 m/S 732 mmHg 77%
    17:00 +20°C° 0.9 mm 3 m/S 732 mmHg 78%
    18:00 +18°C° 0.3 mm 2 m/S 731 mmHg 82%
    19:00 +17°C° 0.3 mm 2 m/S 731 mmHg 85%
    20:00 +15°C° 0.3 mm 2 m/S 731 mmHg 89%
    21:00 +15°C° 0 mm 2 m/S 732 mmHg 90%
    22:00 +14°C° 0 mm 2 m/S 732 mmHg 91%
    23:00 +13°C° 0 mm 2 m/S 732 mmHg 92%

    übermorgen, 22 Mai, Mittwoch

    Zeit Temperatur Niederschläge Wind Luftdruck Luftfeuchtigkeit
    00:00 +12°C° 0 mm 2 m/S 732 mmHg 92%
    01:00 +12°C° 0 mm 2 m/S 732 mmHg 91%
    02:00 +10°C° 0 mm 2 m/S 732 mmHg 90%
    03:00 +10°C° 0 mm 2 m/S 732 mmHg 90%
    04:00 +10°C° 0 mm 3 m/S 732 mmHg 90%
    05:00 +10°C° 0 mm 3 m/S 732 mmHg 90%
    06:00 +12°C° 0 mm 3 m/S 733 mmHg 86%
    07:00 +13°C° 0 mm 3 m/S 733 mmHg 81%
    08:00 +16°C° 0 mm 3 m/S 733 mmHg 77%
    09:00 +17°C° 0.2 mm 3 m/S 733 mmHg 74%
    10:00 +19°C° 0.2 mm 3 m/S 733 mmHg 71%
    11:00 +20°C° 0.2 mm 3 m/S 733 mmHg 67%
    12:00 +20°C° 0.6 mm 3 m/S 733 mmHg 67%
    13:00 +20°C° 0.6 mm 3 m/S 733 mmHg 67%
    14:00 +21°C° 0.6 mm 3 m/S 733 mmHg 67%
    15:00 +20°C° 0.4 mm 3 m/S 733 mmHg 69%
    16:00 +20°C° 0.4 mm 3 m/S 732 mmHg 71%
    17:00 +20°C° 0.4 mm 3 m/S 732 mmHg 73%
    18:00 +19°C° 0.4 mm 3 m/S 732 mmHg 78%
    19:00 +17°C° 0.4 mm 2 m/S 732 mmHg 83%
    20:00 +15°C° 0.4 mm 2 m/S 732 mmHg 88%
    21:00 +15°C° 0 mm 2 m/S 732 mmHg 89%
    22:00 +14°C° 0 mm 2 m/S 732 mmHg 90%
    23:00 +13°C° 0 mm 2 m/S 732 mmHg 91%

    23 Mai, Donnerstag

    Zeit Temperatur Niederschläge Wind Luftdruck Luftfeuchtigkeit
    00:00 +13°C° 0 mm 2 m/S 732 mmHg 91%
    01:00 +13°C° 0 mm 2 m/S 732 mmHg 91%
    02:00 +12°C° 0 mm 2 m/S 732 mmHg 92%
    03:00 +12°C° 0 mm 2 m/S 732 mmHg 92%
    04:00 +12°C° 0 mm 1 m/S 732 mmHg 93%
    05:00 +12°C° 0 mm 1 m/S 732 mmHg 93%
    06:00 +14°C° 0 mm 1 m/S 732 mmHg 89%
    07:00 +15°C° 0 mm 1 m/S 733 mmHg 84%
    08:00 +17°C° 0 mm 2 m/S 733 mmHg 80%
    09:00 +18°C° 0.8 mm 2 m/S 733 mmHg 77%
    10:00 +19°C° 0.8 mm 3 m/S 733 mmHg 75%
    11:00 +20°C° 0.8 mm 4 m/S 733 mmHg 73%
    12:00 +20°C° 0.3 mm 4 m/S 733 mmHg 71%
    13:00 +21°C° 0.3 mm 4 m/S 733 mmHg 69%
    14:00 +21°C° 0.3 mm 4 m/S 732 mmHg 67%
    15:00 +21°C° 0.6 mm 3 m/S 732 mmHg 69%
    16:00 +20°C° 0.6 mm 3 m/S 732 mmHg 72%
    17:00 +20°C° 0.6 mm 3 m/S 732 mmHg 74%
    18:00 +19°C° 0.2 mm 3 m/S 732 mmHg 80%
    19:00 +17°C° 0.2 mm 2 m/S 732 mmHg 86%
    20:00 +16°C° 0.2 mm 2 m/S 731 mmHg 92%
    21:00 +15°C° 0 mm 2 m/S 732 mmHg 94%
    22:00 +13°C° 0 mm 3 m/S 732 mmHg 95%
    23:00 +13°C° 0 mm 3 m/S 732 mmHg 97%

    24 Mai, Freitag

    Zeit Temperatur Niederschläge Wind Luftdruck Luftfeuchtigkeit
    00:00 +12°C° 0 mm 3 m/S 732 mmHg 97%
    01:00 +12°C° 0 mm 3 m/S 732 mmHg 97%
    02:00 +12°C° 0 mm 3 m/S 732 mmHg 98%
    03:00 +12°C° 0 mm 3 m/S 732 mmHg 97%
    04:00 +13°C° 0 mm 3 m/S 732 mmHg 97%
    05:00 +13°C° 0 mm 3 m/S 732 mmHg 96%
    06:00 +14°C° 0.1 mm 3 m/S 732 mmHg 95%
    07:00 +14°C° 0.1 mm 4 m/S 732 mmHg 94%
    08:00 +15°C° 0.1 mm 4 m/S 732 mmHg 92%
    09:00 +15°C° 0.1 mm 4 m/S 732 mmHg 91%
    10:00 +15°C° 0.1 mm 4 m/S 733 mmHg 90%
    11:00 +15°C° 0.1 mm 5 m/S 733 mmHg 90%
    12:00 +15°C° 0.1 mm 5 m/S 733 mmHg 88%
    13:00 +15°C° 0.1 mm 5 m/S 732 mmHg 86%
    14:00 +15°C° 0.1 mm 5 m/S 732 mmHg 84%
    15:00 +15°C° 0.1 mm 5 m/S 732 mmHg 85%
    16:00 +15°C° 0.1 mm 4 m/S 732 mmHg 86%
    17:00 +14°C° 0.1 mm 4 m/S 732 mmHg 87%
    18:00 +14°C° 0 mm 3 m/S 732 mmHg 89%
    19:00 +13°C° 0 mm 3 m/S 732 mmHg 91%
    20:00 +13°C° 0 mm 3 m/S 732 mmHg 93%
    21:00 +13°C° 0 mm 3 m/S 732 mmHg 93%
    22:00 +13°C° 0 mm 3 m/S 732 mmHg 94%
    23:00 +13°C° 0 mm 3 m/S 732 mmHg 94%

    25 Mai, Samstag

    Zeit Temperatur Niederschläge Wind Luftdruck Luftfeuchtigkeit
    00:00 +12°C° 0 mm 3 m/S 732 mmHg 95%
    01:00 +12°C° 0 mm 3 m/S 732 mmHg 95%
    02:00 +12°C° 0 mm 3 m/S 731 mmHg 96%
    03:00 +12°C° 0 mm 3 m/S 732 mmHg 96%
    04:00 +12°C° 0 mm 3 m/S 732 mmHg 96%
    05:00 +13°C° 0 mm 2 m/S 732 mmHg 96%
    06:00 +12°C° 0.1 mm 3 m/S 732 mmHg 93%
    07:00 +13°C° 0.1 mm 3 m/S 732 mmHg 91%
    08:00 +14°C° 0.1 mm 3 m/S 732 mmHg 89%
    09:00 +14°C° 0.2 mm 3 m/S 732 mmHg 86%
    10:00 +15°C° 0.2 mm 4 m/S 732 mmHg 83%
    11:00 +17°C° 0.2 mm 4 m/S 732 mmHg 81%
    12:00 +18°C° 0.1 mm 4 m/S 732 mmHg 75%
    13:00 +19°C° 0.1 mm 4 m/S 732 mmHg 70%
    14:00 +20°C° 0.1 mm 4 m/S 732 mmHg 65%
    15:00 +20°C° 0 mm 4 m/S 732 mmHg 65%
    16:00 +20°C° 0 mm 4 m/S 732 mmHg 65%
    17:00 +20°C° 0 mm 4 m/S 731 mmHg 66%
    18:00 +18°C° 0 mm 3 m/S 731 mmHg 70%
    19:00 +17°C° 0 mm 3 m/S 732 mmHg 74%
    20:00 +15°C° 0 mm 2 m/S 732 mmHg 79%
    21:00 +14°C° 0 mm 2 m/S 732 mmHg 79%
    22:00 +13°C° 0 mm 2 m/S 732 mmHg 79%
    23:00 +12°C° 0 mm 2 m/S 732 mmHg 80%
    Mehr zeigen